Brocton, IL

5:42 PM CST on February 09, 2016 (GMT -0600)
Edgar County

Weather History for KPRG - September, 2013

Change the Weather History Date:

Saturday, September 28, 2013

  Actual Average (KHUF) Record (KHUF)
Temperature  
Mean Temperature 68 °F 61 °F  
Max Temperature 84 °F 73 °F 91 °F (1999)
Min Temperature 52 °F 48 °F 35 °F (1991)
Degree Days  
Heating Degree Days 0 6  
Month to date heating degree days 60  
Since 1 July heating degree days 65  
Cooling Degree Days 3 2  
Month to date cooling degree days 97  
Year to date cooling degree days 976  
Growing Degree Days 18 (Base 50)    
Moisture  
Dew Point 55 °F    
Average Humidity 67    
Maximum Humidity 95    
Minimum Humidity 36    
Precipitation  
Precipitation 0.00 in 0.10 in 0.90 in (1986)
Month to date precipitation 3.20  
Year to date precipitation 34.48  
Sea Level Pressure  
Sea Level Pressure 30.07 in    
Wind  
Wind Speed 5 mph (SSE)    
Max Wind Speed 16 mph    
Max Gust Speed 23 mph    
Visibility 10 miles    
Events      
T = Trace of Precipitation, MM = Missing Value Source: NWS Daily Summary

Daily Weather History Graph

Daily Weather History Graph

Search for Another Location

Airport or City:

Trip Planner

Search our weather history database for the weather conditions in past years. The results will help you decide how hot, cold, wet, or windy it might be!

Date:

Astronomy

Sep. 28, 2013 Rise Set
Actual Time 6:44 AM CDT 6:37 PM CDT
Civil Twilight 6:17 AM CDT 7:04 PM CDT
Nautical Twilight 5:46 AM CDT 7:35 PM CDT
Astronomical Twilight 5:14 AM CDT 8:07 PM CDT
Moon 12:32 AM CDT (9/28) 2:55 PM CDT (9/28)
Length of Visible Light 12h 47m
Length of Day
11h 53m
Waning Crescent, 36% of the Moon is Illuminated
Sep 28
Waning Crescent
Oct 4
New
Oct 11
First Quarter
Oct 18
Full
Oct 26
Last Quarter

Hourly Weather History & Observations

Time (CDT) Temp. Heat Index Dew Point Humidity Pressure Visibility Wind Dir Wind Speed Gust Speed Precip Events Conditions
12:15 AM 57.4 °F - 52.7 °F 84% 30.10 in 10.0 mi SE 3.5 mph - N/A   Clear
12:35 AM 58.8 °F - 53.6 °F 83% 30.10 in 10.0 mi SE 3.5 mph - N/A   Clear
12:55 AM 56.7 °F - 52.3 °F 85% 30.10 in 10.0 mi Calm Calm - N/A   Clear
1:15 AM 57.0 °F - 53.1 °F 87% 30.10 in 10.0 mi SE 3.5 mph - N/A   Clear
1:35 AM 54.5 °F - 51.1 °F 88% 30.10 in 10.0 mi Calm Calm - N/A   Clear
1:55 AM 54.1 °F - 51.8 °F 92% 30.10 in 10.0 mi Calm Calm - N/A   Clear
2:15 AM 57.6 °F - 53.1 °F 85% 30.10 in 10.0 mi ESE 3.5 mph - N/A   Clear
2:35 AM 57.0 °F - 52.5 °F 85% 30.09 in 10.0 mi Calm Calm - N/A   Clear
2:55 AM 55.6 °F - 52.7 °F 90% 30.09 in 10.0 mi Calm Calm - N/A   Clear
3:15 AM 55.6 °F - 52.5 °F 89% 30.09 in 10.0 mi ESE 3.5 mph - N/A   Clear
3:35 AM 55.9 °F - 52.0 °F 87% 30.09 in 10.0 mi Calm Calm - N/A   Clear
3:55 AM 54.7 °F - 51.6 °F 89% 30.09 in 10.0 mi Calm Calm - N/A   Clear
4:15 AM 53.8 °F - 51.8 °F 93% 30.10 in 10.0 mi Calm Calm - N/A   Clear
4:35 AM 54.3 °F - 52.2 °F 92% 30.09 in 10.0 mi Calm Calm - N/A   Clear
4:55 AM 55.4 °F - 52.7 °F 91% 30.09 in 10.0 mi ESE 3.5 mph - N/A   Clear
5:15 AM 54.9 °F - 52.2 °F 91% 30.10 in 10.0 mi SE 3.5 mph - N/A   Clear
5:35 AM 55.0 °F - 52.7 °F 92% 30.10 in 10.0 mi SE 3.5 mph - N/A   Clear
5:55 AM 52.2 °F - 50.0 °F 92% 30.11 in 7.0 mi Calm Calm - N/A   Clear
6:15 AM 53.2 °F - 51.8 °F 95% 30.11 in 10.0 mi Calm Calm - N/A   Clear
6:35 AM 53.8 °F - 51.8 °F 93% 30.12 in 7.0 mi SE 3.5 mph - N/A   Clear
6:55 AM 54.0 °F - 52.0 °F 93% 30.12 in 10.0 mi SE 3.5 mph - N/A   Clear
7:15 AM 54.9 °F - 52.7 °F 92% 30.12 in 7.0 mi Calm Calm - N/A   Clear
7:35 AM 56.5 °F - 53.6 °F 90% 30.12 in 7.0 mi ESE 3.5 mph - N/A   Clear
7:55 AM 58.6 °F - 55.4 °F 89% 30.12 in 10.0 mi SE 4.6 mph - N/A   Clear
8:15 AM 61.2 °F - 56.5 °F 85% 30.13 in 10.0 mi SE 4.6 mph - N/A   Clear
8:35 AM 63.7 °F - 57.4 °F 80% 30.13 in 10.0 mi SE 4.6 mph - N/A   Clear
8:55 AM 67.1 °F - 58.3 °F 73% 30.14 in 10.0 mi SSE 6.9 mph - N/A   Scattered Clouds
9:15 AM 69.4 °F - 58.3 °F 68% 30.14 in 10.0 mi SSE 6.9 mph - N/A   Scattered Clouds
9:35 AM 72.3 °F - 58.5 °F 62% 30.13 in 10.0 mi South 6.9 mph - N/A   Scattered Clouds
9:55 AM 73.9 °F - 58.6 °F 59% 30.13 in 10.0 mi South 4.6 mph - N/A   Clear
10:15 AM 75.6 °F - 58.3 °F 55% 30.12 in 10.0 mi South 9.2 mph - N/A   Clear
10:35 AM 77.7 °F - 58.6 °F 52% 30.12 in 10.0 mi SSW 9.2 mph - N/A   Clear
10:55 AM 78.8 °F - 59.5 °F 52% 30.11 in 10.0 mi South 10.4 mph - N/A   Clear
11:15 AM 79.3 °F - 60.1 °F 52% 30.11 in 10.0 mi SSW 9.2 mph - N/A   Clear
11:35 AM 79.9 °F - 59.7 °F 50% 30.10 in 10.0 mi South 9.2 mph 19.6 mph N/A   Clear
11:55 AM 81.3 °F 81.7 °F 59.2 °F 47% 30.09 in 10.0 mi SSW 8.1 mph 18.4 mph N/A   Clear
12:15 PM 81.9 °F 82.1 °F 59.4 °F 46% 30.08 in 10.0 mi South 12.7 mph 17.3 mph N/A   Clear
12:35 PM 81.5 °F 81.5 °F 57.6 °F 44% 30.08 in 10.0 mi SSW 11.5 mph 18.4 mph N/A   Clear
12:55 PM 80.8 °F 81.2 °F 58.6 °F 47% 30.07 in 10.0 mi SW 9.2 mph - N/A   Mostly Cloudy
1:15 PM 83.1 °F 82.3 °F 55.8 °F 39% 30.07 in 10.0 mi South 13.8 mph 23.0 mph N/A   Scattered Clouds
1:35 PM 81.7 °F 81.3 °F 55.8 °F 41% 30.05 in 10.0 mi South 12.7 mph 18.4 mph N/A   Scattered Clouds
1:55 PM 81.5 °F 81.1 °F 55.6 °F 41% 30.05 in 10.0 mi SSW 8.1 mph - N/A   Mostly Cloudy
2:15 PM 81.7 °F 81.3 °F 55.6 °F 41% 30.04 in 10.0 mi SSW 12.7 mph 17.3 mph N/A   Mostly Cloudy
2:35 PM 84.2 °F 83.0 °F 55.2 °F 37% 30.04 in 10.0 mi SW 15.0 mph 19.6 mph N/A   Mostly Cloudy
2:55 PM 82.6 °F 81.7 °F 54.9 °F 38% 30.04 in 10.0 mi South 16.1 mph 19.6 mph N/A   Scattered Clouds
3:15 PM 82.4 °F 81.7 °F 54.9 °F 39% 30.03 in 10.0 mi SSE 15.0 mph 20.7 mph N/A   Scattered Clouds
3:35 PM 82.6 °F 81.7 °F 54.7 °F 38% 30.03 in 10.0 mi South 11.5 mph 19.6 mph N/A   Scattered Clouds
3:55 PM 83.5 °F 82.2 °F 53.6 °F 36% 30.02 in 10.0 mi SSW 15.0 mph 18.4 mph N/A   Scattered Clouds
4:15 PM 82.8 °F 81.7 °F 54.0 °F 37% 30.02 in 10.0 mi South 10.4 mph - N/A   Scattered Clouds
4:35 PM 81.1 °F 80.9 °F 55.0 °F 41% 30.02 in 10.0 mi South 11.5 mph - N/A   Scattered Clouds
4:55 PM 81.7 °F 81.1 °F 54.3 °F 39% 30.02 in 10.0 mi South 11.5 mph - N/A   Scattered Clouds
5:15 PM 78.6 °F - 54.9 °F 44% 30.02 in 10.0 mi South 6.9 mph - N/A   Scattered Clouds
5:35 PM 78.8 °F - 55.8 °F 45% 30.02 in 10.0 mi South 4.6 mph - N/A   Clear
5:55 PM 76.1 °F - 56.3 °F 50% 30.02 in 10.0 mi SSE 4.6 mph - N/A   Clear
6:15 PM 74.7 °F - 56.7 °F 53% 30.02 in 10.0 mi SSE 4.6 mph - N/A   Clear
6:35 PM 71.4 °F - 56.5 °F 59% 30.01 in 10.0 mi SSE 5.8 mph - N/A   Clear
6:55 PM 68.9 °F - 56.3 °F 64% 30.02 in 10.0 mi SSE 5.8 mph - N/A   Clear
7:15 PM 67.1 °F - 56.3 °F 68% 30.01 in 10.0 mi SSE 5.8 mph - N/A   Clear
7:35 PM 66.9 °F - 56.3 °F 69% 30.01 in 10.0 mi SSE 4.6 mph - N/A   Clear
7:55 PM 66.7 °F - 56.5 °F 70% 30.01 in 10.0 mi SSE 4.6 mph - N/A   Scattered Clouds
8:15 PM 66.7 °F - 56.5 °F 70% 30.01 in 10.0 mi SSE 4.6 mph - N/A   Clear
8:35 PM 66.6 °F - 56.5 °F 70% 30.01 in 10.0 mi South 5.8 mph - N/A   Scattered Clouds
8:55 PM 67.1 °F - 56.3 °F 68% 30.01 in 10.0 mi South 5.8 mph - N/A   Scattered Clouds
9:15 PM 68.4 °F - 56.3 °F 65% 30.02 in 10.0 mi South 5.8 mph - N/A   Mostly Cloudy
9:35 PM 68.0 °F - 56.3 °F 66% 30.02 in 10.0 mi South 5.8 mph - N/A   Scattered Clouds
9:55 PM 67.6 °F - 56.3 °F 67% 30.02 in 10.0 mi South 5.8 mph - N/A   Mostly Cloudy
10:15 PM 68.5 °F - 56.5 °F 65% 30.02 in 10.0 mi South 5.8 mph - N/A   Overcast
10:35 PM 68.9 °F - 56.5 °F 65% 30.02 in 10.0 mi South 6.9 mph - N/A   Overcast
10:55 PM 69.3 °F - 56.5 °F 64% 30.02 in 10.0 mi South 6.9 mph - N/A   Mostly Cloudy
11:15 PM 69.4 °F - 56.7 °F 64% 30.02 in 10.0 mi South 5.8 mph - N/A   Mostly Cloudy
11:35 PM 69.8 °F - 57.0 °F 64% 30.03 in 10.0 mi South 5.8 mph - N/A   Overcast
11:55 PM 70.2 °F - 57.0 °F 63% 30.02 in 10.0 mi South 5.8 mph - N/A   Overcast